Overview Statistics Trail Chart Weather Telemetry Raw packets
 

This is the latest recevied weather packets stored in our database for station/object HB9FHL-13. If no packets are shown the sender has not sent any weather packets the latest 10 day(s).

<< 16 17 18 19 20 21 22 >>
Time Temp. Humidity Pressure Rain* Wind** Luminosity Snow
1788574953 22.78° C - 1020.2 hPa 0 mm - - -
1788574653 23.89° C - 1025.1 hPa 0 mm - - -
1788574352 23.33° C - 1022.3 hPa 0 mm - - -
1788574052 23.89° C - 1019.7 hPa 0 mm - - -
1788573789 23.89° C - 1022.6 hPa 0 mm - - -
1788573751 23.89° C - 1022.6 hPa 0 mm - - -
1788573451 22.78° C - 1018.9 hPa 0 mm - - -
1788573150 24.44° C - 1025.2 hPa 0 mm - - -
1788572850 23.89° C - 1025 hPa 0 mm - - -
1788572549 23.33° C - 1023.7 hPa 0 mm - - -
1788572249 23.89° C - 1021.6 hPa 0 mm - - -
1788571948 23.89° C - 1022 hPa 0 mm - - -
1788571648 23.89° C - 1021.1 hPa 0 mm - - -
1788571349 25.56° C - 1022.6 hPa 0 mm - - -
1788571045 23.33° C - 1025.7 hPa 0 mm - - -
1788570776 24.44° C - 1027.3 hPa 0 mm - - -
1788570745 24.44° C - 1027.3 hPa 0 mm - - -
1788570444 24.44° C - 1023.1 hPa 0 mm - - -
1788570144 25° C - 1018.7 hPa 0 mm - - -
1788569843 23.89° C - 1018.6 hPa 0 mm - - -
1788569242 23.89° C - 1022.3 hPa 0 mm - - -
1788568942 24.44° C - 1023.1 hPa 0 mm - - -
1788568642 25° C - 1023 hPa 0 mm - - -
1788568341 23.89° C - 1018.1 hPa 0 mm - - -
1788568041 25° C - 1021.3 hPa 0 mm - - -

* Rain since midnight (hover to see other rain measurements)
** Current wind speed in m/s (hover to see current wind gust speed)